Weather History for KNPA - February, 2013

Change the Weather History Date:

Tuesday, February 26, 2013

  Actual Average (KPNS) Record (KPNS)
Temperature  
Mean Temperature 60 °F 57 °F  
Max Temperature 66 °F 66 °F 82 °F (1972)
Min Temperature 53 °F 48 °F 26 °F (1967)
Degree Days  
Heating Degree Days 6 9  
Month to date heating degree days 282  
Since 1 July heating degree days 1293  
Cooling Degree Days 0 0  
Month to date cooling degree days 0  
Year to date cooling degree days 6  
Growing Degree Days 10 (Base 50)    
Moisture  
Dew Point 48 °F    
Average Humidity 70    
Maximum Humidity 100    
Minimum Humidity 53    
Precipitation  
Precipitation 0.04 in 0.18 in 2.01 in (2003)
Month to date precipitation 4.69  
Year to date precipitation 9.32  
Snow  
Snow 0.00 in 0.00 in - ()
Month to date snowfall 0.0  
Since 1 July snowfall 0.0  
Snow Depth -    
Sea Level Pressure  
Sea Level Pressure 29.71 in    
Wind  
Wind Speed 11 mph (WSW)    
Max Wind Speed 21 mph    
Max Gust Speed 30 mph    
Visibility 9 miles    
Events Rain    
T = Trace of Precipitation, MM = Missing Value Source: NWS Daily Summary

Daily Weather History Graph

Daily Weather History Graph

Search for Another Location

Airport or City:

Trip Planner

Search our weather history database for the weather conditions in past years. The results will help you decide how hot, cold, wet, or windy it might be!

Date:

Astronomy

Feb. 26, 2013 Rise Set
Actual Time 6:18 AM CST 5:46 PM CST
Civil Twilight 5:54 AM CST 6:10 PM CST
Nautical Twilight 5:26 AM CST 6:38 PM CST
Astronomical Twilight 4:58 AM CST 7:06 PM CST
Moon 6:53 PM CST (2/26) 6:27 AM CST (2/26)
Length of Visible Light 12h 16m
Length of Day
11h 27m
Full, 99% of the Moon is Illuminated
Feb 26
Full
Mar 4
Last Quarter
Mar 11
New
Mar 19
First Quarter
Mar 27
Full

Hourly Weather History & Observations

Time (CST) Temp. Dew Point Humidity Pressure Visibility Wind Dir Wind Speed Gust Speed Precip Events Conditions
12:06 AM 64.4 °F 64.4 °F 100% 29.55 in 3.0 mi SSW 15.0 mph - 0.01 in Rain Rain
12:19 AM 66.2 °F 64.4 °F 94% 29.56 in 3.0 mi SSW 16.1 mph 24.2 mph 0.04 in Rain Heavy Rain
12:26 AM 66.2 °F 64.4 °F 94% 29.55 in 5.0 mi SW 10.4 mph - 0.04 in Rain Light Rain
12:53 AM 64.4 °F 64.4 °F 100% 29.54 in 8.0 mi WSW 9.2 mph - 0.04 in   Overcast
12:56 AM 64.9 °F 64.0 °F 97% 29.55 in 8.0 mi WSW 8.1 mph - 0.04 in   Overcast
1:56 AM 64.0 °F 57.9 °F 80% 29.55 in 10.0 mi West 8.1 mph 16.1 mph N/A   Overcast
2:56 AM 62.1 °F 51.1 °F 67% 29.55 in 10.0 mi West 9.2 mph 19.6 mph N/A   Mostly Cloudy
3:56 AM 60.1 °F 48.0 °F 64% 29.58 in 10.0 mi WSW 6.9 mph - N/A   Scattered Clouds
4:56 AM 59.0 °F 45.0 °F 60% 29.61 in 10.0 mi WSW 8.1 mph 18.4 mph N/A   Clear
5:56 AM 55.9 °F 46.9 °F 72% 29.63 in 10.0 mi WSW 8.1 mph - N/A   Mostly Cloudy
6:56 AM 55.9 °F 41.0 °F 57% 29.67 in 10.0 mi WSW 8.1 mph 18.4 mph N/A   Mostly Cloudy
7:56 AM 55.9 °F 42.1 °F 60% 29.70 in 10.0 mi WSW 10.4 mph 18.4 mph N/A   Mostly Cloudy
8:56 AM 55.9 °F 43.0 °F 62% 29.72 in 10.0 mi WSW 18.4 mph 26.5 mph N/A   Mostly Cloudy
9:56 AM 55.0 °F 43.0 °F 64% 29.73 in 10.0 mi West 15.0 mph 21.9 mph N/A   Scattered Clouds
10:56 AM 55.9 °F 39.9 °F 55% 29.76 in 6.2 mi WSW 18.4 mph 29.9 mph N/A   Scattered Clouds
11:56 AM 55.9 °F 41.0 °F 57% 29.77 in 10.0 mi WSW 20.7 mph 27.6 mph N/A   Scattered Clouds
12:56 PM 57.0 °F 42.1 °F 57% 29.75 in 10.0 mi West 16.1 mph 29.9 mph N/A   Scattered Clouds
1:56 PM 57.9 °F 41.0 °F 53% 29.74 in 10.0 mi WSW 9.2 mph 23.0 mph N/A   Mostly Cloudy
2:56 PM 55.0 °F 42.1 °F 62% 29.75 in 10.0 mi WSW 16.1 mph 27.6 mph N/A   Mostly Cloudy
3:56 PM 55.0 °F 41.0 °F 59% 29.75 in 10.0 mi WSW 9.2 mph 20.7 mph N/A   Mostly Cloudy
4:56 PM 54.0 °F 42.1 °F 64% 29.78 in 10.0 mi WSW 8.1 mph 18.4 mph N/A   Mostly Cloudy
5:56 PM 54.0 °F 43.0 °F 66% 29.81 in 10.0 mi WSW 8.1 mph - N/A   Mostly Cloudy
6:56 PM 54.0 °F 43.0 °F 66% 29.83 in 10.0 mi West 9.2 mph - N/A   Mostly Cloudy
7:56 PM 54.0 °F 43.0 °F 66% 29.86 in 10.0 mi West 5.8 mph - N/A   Mostly Cloudy
8:56 PM 53.1 °F 43.0 °F 69% 29.89 in 10.0 mi West 3.5 mph - N/A   Mostly Cloudy
9:56 PM 53.1 °F 44.1 °F 71% 29.91 in 10.0 mi West 3.5 mph - N/A   Clear
10:56 PM 53.1 °F 44.1 °F 71% 29.92 in 10.0 mi West 4.6 mph - N/A   Clear
11:56 PM 53.1 °F 42.1 °F 66% 29.93 in 10.0 mi WNW 5.8 mph - N/A   Clear